リニア-ニート彗星

231P/LINEAR-NEAT (2019)

English version
Home page
Updated on July 8, 2020

---------------------------------------------------------------------

・ プロフィール

・ 写真集

・ 軌道要素

Epoch 2019 June 6.0 TT = JDT 2458640.5                                          
T 2019 June 14.24642 TT                                 Rudenko                 
q   3.0224756            (2000.0)            P               Q                  
n   0.12241792     Peri.   42.74952     -0.98583510     -0.06120692             
a   4.0170391      Node   133.02987     +0.01965560     -0.96677833             
e   0.2475862      Incl.   12.33413     +0.16656176     -0.24818013             
P   8.05                                                                        
From 443 observations 1950 Apr. 20-2020 June 22, mean residual 0".8.            
     Nongravitational parameters A1 = +16.22, A2 = -0.7136.                     

・ 光度変化

        m1 = 4.0 + 5 logΔ + 25 log r

---------------------------------------------------------------------

軌道要素はM.P.E.C. 2020-M114に掲載されたものです。
光度グラフはComet for Windowsで作成したものです。

---------------------------------------------------------------------

Copyright(C) Seiichi Yoshida (comet@aerith.net). All rights reserved.